Simultaneous Nadir Overpasses (SNOs) Predictions

Prediction of SNOs between AQUA and METOP-C Satellite Orbit:

Table of predicted SNOs for the next 14.0 days since TLE Epoch: 2/15/2025
Index Date (AQUA) Time (AQUA) Lat,Lon (AQUA) SZA (AQUA ) Date (METOP-C) Time (METOP-C) Lat,Lon (METOP-C) SZA (METOP-C ) Distance(km) Time Diff (sec)
1 02/16/2025 08:59:30 -76.21,-133.71 91.67 02/16/2025 08:58:46 -76.19,-133.70 91.69 1.57 44
2 02/16/2025 09:48:51 76.27, 33.75 88.38 02/16/2025 09:49:25 76.25, 33.81 88.36 3.20 34
3 02/18/2025 21:48:56 -76.13, 34.23 92.65 02/18/2025 21:47:43 -76.07, 33.65 92.70 17.01 73
4 02/18/2025 22:38:18 76.25,-158.48 87.47 02/18/2025 22:38:19 76.26,-158.38 87.47 2.64 1
5 02/18/2025 23:27:45 -76.65, 7.80 92.13 02/18/2025 23:28:52 -76.64, 10.35 92.17 65.51 67
6 02/21/2025 11:27:43 76.22, 9.32 86.53 02/21/2025 11:27:14 76.21, 9.23 86.52 2.83 29
7 02/21/2025 12:17:03 -76.29, 176.77 93.42 02/21/2025 12:17:54 -76.28, 176.82 93.43 1.57 51
8 02/24/2025 00:17:07 76.23, 177.00 85.61 02/24/2025 00:16:07 76.24, 177.12 85.62 3.49 60
9 02/24/2025 01:06:25 -76.25, -15.38 94.39 02/24/2025 01:06:47 -76.28, -15.43 94.36 3.50 22
10 02/26/2025 13:06:17 75.70, -13.59 84.12 02/26/2025 13:05:13 75.62, -17.18 84.08 99.32 64
11 02/26/2025 13:55:47 -76.25, 152.34 95.34 02/26/2025 13:55:41 -76.26, 152.29 95.32 2.29 6
12 02/26/2025 14:45:08 76.33, -40.27 84.74 02/26/2025 14:46:19 76.34, -40.11 84.74 4.22 71
13 03/01/2025 02:45:07 -76.24, -39.89 96.31 03/01/2025 02:44:35 -76.23, -40.04 96.31 3.84 32



Historial Predications of SNOs between AQUA and METOP-C
